Location: Goettingen
(51.5300°N, 9.9433°E)
Time: 19:57:12
(UTC+01:00)

ISS - Pass Details

Date: 13 December 2017
Orbit: 402 x 407 km, 51.6° (Epoch: 11 December)

Event Time Altitude Azimuth Distance (km) Brightness Sun altitude
Rises 18:01:23 0° 284° (WNW) 2,332 1.1 -16.0°
Reaches altitude 10° 18:03:35 10° 274° (W) 1,468 0.1 -16.3°
Maximum altitude 18:06:34 33° 209° (SSW) 709 -2.2 -16.8°
Enters shadow 18:09:02 13° 147° (SSE) 1,269 -1.5 -17.1°
